Other Surface Observations
Issued by NWS

Home | Current Version | Previous Version | Text Only | Print | Product List | Glossary On
Versions: 1 2 3 4 5 6 7 8 9 10 11 12 13 14 15 16 17 18 19 20 21 22 23 24 25 26 27 28 29 30 31 32 33 34 35 36 37 38 39 40 41 42 43 44 45 46 47 48 49 50
000
SXUS52 KTAE 280618
OSOTAE
OSOTAE
North Florida/South Alabama/Southwest Georgia Weather Roundup
National Weather Service Tallahassee Florida
200 AM EDT TUE APR 28 2015

Note: "fair" indicates few or no clouds below 12,000 feet with no
significant weather and/or obstructions to visibility.

!FLZ017-115-028-034-025-280700
...North Florida...

CITY           SKY/WX    TMP DP  RH WIND       PRES   REMARKS
TALLAHASSEE    CLOUDY    69  64  84 MISG      29.81R
APALACHICOLA   CLOUDY    72  68  87 N7        29.79R
PERRY          CLOUDY    67  67  97 E5        29.79S
CROSS CITY       N/A     69  67  93 VRB3      29.79F
JACKSONVILLE   CLOUDY    66  62  87 E8        29.83F
$$

!FLZ112-006-005-002-011-280700
...Florida Panhandle...

CITY           SKY/WX    TMP DP  RH WIND       PRES   REMARKS
MARIANNA       CLOUDY    65  64  97 N3        29.82R
BONIFAY        MOCLDY    65  61  87 CALM      29.85R
PANAMA CITY NW MOCLDY    66  64  93 CALM      29.81F
TYNDALL AFB    LGT RAIN  66  66 100 CALM      29.79F
TYND DRONE APT LGT RAIN  68  68 100 NE8       29.80R
DE FUNIAK SPR  CLOUDY    65  61  89 CALM      29.84F
EGLIN AFB      LGT RAIN  65  63  93 VRB3      29.83F
DESTIN         LGT RAIN  67  64  90 N7        29.84S
HURLBURT       LGT RAIN  65  61  86 CALM      29.82F
CRESTVIEW      CLOUDY    64  62  93 CALM      29.85F
PENSACOLA      LGT RAIN  64  62  93 E8        29.80F
$$

!ALZ063-066-280700
...South Alabama...

CITY           SKY/WX    TMP DP  RH WIND       PRES   REMARKS
DOTHAN         CLOUDY    63  59  87 N6        29.88S
OZARK CAIRNS   CLOUDY    64  54  69 NE8       29.84R
FT RUCKER HELI CLOUDY    63  56  78 NE6       29.84R
RUCKER HELI 3  NOT AVBL
RUCKER HELI 2  FAIR      63  56  78 N8        29.85R
FLORALA APT    CLOUDY    62  60  93 CALM      29.85S
ANDALUSIA      CLOUDY    65  58  78 E3        29.85F
TROY           CLOUDY    60  49  66 NE3       29.87F
EUFALA         CLOUDY    62  48  60 CALM      29.86S
MOBILE         LGT RAIN  61  60  97 E14       29.78F
$$

!GAZ120>161-280700
...Southwest and South Central Georgia...

CITY           SKY/WX    TMP DP  RH WIND       PRES   REMARKS
THOMASVILLE    CLOUDY    64  63  94 CALM      29.84S
BAINBRIDGE     CLOUDY    66  64  94 NE6       29.83S
MOODY AFB      CLOUDY    63  61  91 E5        29.82F
VALDOSTA       CLOUDY    65  62  90 CALM      29.83F
MOULTRIE       CLOUDY    64  61  88 CALM      29.85R
BLAKELY        CLOUDY    64  64 100 CALM      29.85S
ALBANY         MOCLDY    63  60  90 CALM      29.87R
TIFTON         FAIR      62  62  97 CALM      29.85R
FITZGERALD     FAIR      64  62  91 CALM      29.87F
CORDELE        FAIR      64  54  71 CALM      29.88R
AMERICUS       FAIR      57  50  77 N3        29.89R
HOMERVILLE     FAIR      64  63  94 CALM      29.84F
$$

!GMZ750-755-770-775-280700
...Coastal and Buoy Obs...

STATION/POSITION TIME  TEMP    WIND        PRES    VSBY  WAVE
                       AIR SEA DIR/SP/G                  HT/PER
                 (UTC) (F)     (DEG/KT/KT) (MB)    (MI)  (FT/S)
KEATON BEACH     0600   69      90/  9/ 10 1008.3F
CEDAR KEY        0600   70      70/ 10/ 11 1009.1F
C TOWER          0600   73     190/  8/  9 1007.8F
APALACHICOLA BUO 0550   78 75  200/ 14/ 19 1007.4F         3/ 4
PANAMA CITY BUOY 0550   77 76  180/ 19/ 23 1006.6F         5/ 5
MOBILE BUOY      0550   72 76   70/  6/  8 1010.7R         7/ 7
ORANGE BCH AL BU 0550   68 73   50/  8/ 10 1009.2F         4/ 5
$$



USA.gov is the U.S. government's official web portal to all federal, state and local government web resources and services.